Location: Caltech
(34.1382°N, 118.1253°W)
Time: 10:40:20
(UTC-07:00)

CZ-2C R/B - Visible Passes

Search period start: 22 August 2014 00:00
Search period end: 01 September 2014 00:00
Orbit: 705 x 910 km, 98.1° (Epoch: 21 August)

Date Brightness Start Highest point End Pass type
(mag) Time Alt. Az. Time Alt. Az. Time Alt. Az.
22 Aug 5.2 03:03:39 16° E 03:05:09 19° ENE 03:08:26 10° NNE visible
22 Aug 3.3 04:44:45 36° W 04:44:45 36° W 04:49:09 10° NNW visible
23 Aug 5.8 02:40:20 10° ENE 02:40:58 10° ENE 02:41:35 10° NE visible
23 Aug 2.7 04:20:06 68° WSW 04:20:12 68° WSW 04:24:58 10° NNW visible
24 Aug 3.1 03:55:27 64° E 03:55:43 65° ENE 04:00:29 10° N visible
25 Aug 4.2 03:30:48 34° E 03:31:20 35° ENE 03:35:42 10° N visible
25 Aug 4.3 05:11:53 18° W 05:11:53 18° W 05:14:38 10° NW visible
26 Aug 5.1 03:06:08 19° E 03:07:02 20° ENE 03:10:31 10° NNE visible
26 Aug 3.6 04:47:14 32° W 04:47:14 32° W 04:51:02 10° NNW visible
27 Aug 5.7 02:41:29 10° E 02:42:50 11° ENE 02:44:17 10° NE visible
27 Aug 2.9 04:22:35 59° WNW 04:22:35 59° WNW 04:26:54 10° NNW visible
28 Aug 3.1 03:57:55 68° NE 03:57:55 68° NE 04:02:28 10° N visible
29 Aug 4.1 03:33:16 38° ENE 03:33:16 38° ENE 03:37:43 10° N visible
29 Aug 4.5 05:14:22 16° WNW 05:14:22 16° WNW 05:16:27 10° NW visible
30 Aug 5.0 03:08:36 22° ENE 03:08:55 22° ENE 03:12:37 10° NNE visible
30 Aug 3.9 04:49:42 28° WNW 04:49:42 28° WNW 04:52:56 10° NW visible
31 Aug 5.7 02:43:57 12° ENE 02:44:43 12° ENE 02:46:43 10° NE visible
31 Aug 3.3 04:25:03 47° NW 04:25:03 47° NW 04:28:52 10° NNW visible
